Regional Weather Roundup
Issued by NWS Cleveland, OH

Home | Current Version | Previous Version | Graphics & Text | Print | Product List | Glossary On
Versions: 1 2 3 4 5 6 7 8 9 10 11 12 13 14 15 16 17 18 19 20 21 22 23 24 25 26 27 28 29 30 31 32 33 34 35 36 37 38 39 40 41 42 43 44 45 46 47 48 49 50
000
ASUS41 KCLE 241800
RWRCLE
OHIO REGIONAL WEATHER ROUNDUP
NATIONAL WEATHER SERVICE WILMINGTON, OH
200 PM EDT FRI OCT 24 2014

NOTE: "FAIR" INDICATES FEW OR NO CLOUDS BELOW 12,000 FEET WITH NO
SIGNIFICANT WEATHER AND/OR OBSTRUCTIONS TO VISIBILITY.

OHZ001>008-015>018-024>027-034-035-043-044-241900-
   NORTHWEST OHIO

CITY           SKY/WX    TMP DP  RH WIND       PRES   REMARKS
DEFIANCE       CLOUDY    56  46  69 VRB5      30.06F
FINDLAY        PTSUNNY   62  43  49 VRB5      30.04F
TOLEDO EXPRESS CLOUDY    59  43  55 SW8       30.04F
TOLEDO METCALF CLOUDY    60  42  51 W8        30.05F
LIMA           SUNNY     62  43  49 W6        30.05F
$$

OHZ009>014-019>023-028>033-038-089-241900-
   NORTHEAST OHIO

CITY           SKY/WX    TMP DP  RH WIND       PRES   REMARKS
CLE-HOPKINS    MOSUNNY   59  41  51 W3        30.07F
CLE-LAKEFRONT  SUNNY     57  43  59 W9        30.05F
CUY CO. ARPT   PTSUNNY   59  43  55 NW14      30.06F
LORAIN-ELYRIA  SUNNY     59  39  47 VRB7      30.05F HAZE
ASHTABULA      PTSUNNY   58  44  60 VRB6      30.05F
AKRON-CANTON   MOSUNNY   60  41  49 NW5       30.05F
WOOSTER        NOT AVBL
MANSFIELD      MOSUNNY   60  39  45 W8        30.06F
YOUNGSTOWN     PTSUNNY   60  41  49 NW10      30.04F
$$

OHZ042-051>053-060>062-070>072-077>081-241900-
  SOUTHWEST OHIO

CITY           SKY/WX    TMP DP  RH WIND       PRES   REMARKS
CINC-COVINGTON SUNNY     63  40  42 CALM      30.08F
CINC-LUNKEN    SUNNY     63  43  48 CALM      30.09F
HAMILTON       SUNNY     63  42  46 NW5       30.10F
DAYTON         NOT AVBL
WRIGHT-PAT AFB SUNNY     61  41  48 VRB5      30.07F
DAYTON GENERAL SUNNY     61  40  45 VRB5      30.06F
WILMINGTON     SUNNY     62  39  42 W6        30.07F
$$

OHZ036-037-039>041-045>050-054>059-063>069-073>076-082>088-241900-
  CENTRAL AND SOUTHEAST OHIO

CITY           SKY/WX    TMP DP  RH WIND       PRES   REMARKS
COLUMBUS       MOSUNNY   60  41  49 CALM      30.07F
OSU AIRPORT    SUNNY     61  39  44 W8        30.07F
BOLTON FIELD   SUNNY     63  43  48 W7        30.08F
RICKENBACK AFB NOT AVBL
NEWARK         SUNNY     61  40  45 W5        30.07F
MARION         SUNNY     60  40  47 VRB3      30.06F
LANCASTER      SUNNY     60  42  51 W6        30.08F
ZANESVILLE     SUNNY     60  41  49 W6        30.07F
NEW PHILLY     SUNNY     61  40  45 MISG      30.07F
$$



USA.gov is the U.S. government's official web portal to all federal, state and local government web resources and services.